Tracking 30743 objects as of 24-Jun-2025
HD Live streaming from Space Station
objects crossing your sky now

COSMOS 342

Track COSMOS 342 now!
10-day predictions
COSMOS 342 is classified as:


NORAD ID: 4389
Int'l Code: 1970-036G
Perigee: 1,317.8 km
Apogee: 1,474.0 km
Inclination: 74.0 °
Period: 113.5 minutes
Semi major axis: 7766 km
RCS: 0.743 m2 (medium)
Launch date: April 25, 1970
Source: Commonwealth of Independent States (former USSR) (CIS)
Launch site: PLESETSK MISSILE AND SPACE COMPLEX (PKMTR)
Your satellite tracking list
Your tracking list is empty




NASA's NSSDC Master Catalog

Two Line Element Set (TLE):
1 04389U 70036G   25175.37746153 -.00000021  00000-0 -27083-4 0  9995
2 04389  74.0271 142.9005 0100595  89.2472  64.1411 12.68331053553754
Source of the keplerian elements: AFSPC